This demonstration page uses our WeatherBlox Daily Observations layout. Learn more.

Left ArrowRight Arrow

Hourly Observations for June 13, 2016

Temp ( °F °C ) Dew Point ( °F °C ) Humidity (%) Winds ( mph kmh ) Pressure ( in mb ) Visibility ( mi km ) Precip ( " mm )
12:51 am 00:51 Clear 79 26.1 34 1.1 20 20 NW 13 20 29.86 1011 10 16 0.00 0.00
1:51 am 01:51 Clear 79 26.1 35 1.7 20 20 NNW 12 19 29.85 1011 10 16 0.00 0.00
2:51 am 02:51 Clear 76 24.4 35 1.7 23 23 NW 12 19 29.86 1011 10 16 0.00 0.00
3:51 am 03:51 Clear 76 24.4 34 1.1 22 22 WNW 13 20 29.87 1011 10 16 0.00 0.00
4:51 am 04:51 Clear 69 20.6 38 3.3 32 32 Calm 29.89 1012 10 16 0.00 0.00
5:51 am 05:51 Sunny 70 21.1 41 5 35 35 SE 5 7 29.91 1013 10 16 0.00 0.00
6:51 am 06:51 Sunny 76 24.4 40 4.4 27 27 SSE 3 6 29.91 1013 10 16 0.00 0.00
7:51 am 07:51 Sunny 79 26.1 39 3.9 24 24 Calm 29.92 1013 10 16 0.00 0.00
8:51 am 08:51 Sunny 83 28.3 37 2.8 19 19 SE 3 6 29.90 1013 9 14 0.00 0.00
9:51 am 09:51 Sunny 87 30.6 38 3.3 18 18 VRB 6 9 29.88 1012 10 16 0.00 0.00
10:51 am 10:51 undefined N/A N/A N/A undefined N/A N/A N/A 0.00 0.00
11:51 am 11:51 Sunny N/A N/A N/A NW 10 17 N/A 10 16 0.00 0.00
12:51 pm 12:51 Partly Cloudy 95 35 38 3.3 14 14 VRB 6 9 29.81 1009 10 16 0.00 0.00
1:51 pm 13:51 Sunny 96 35.6 37 2.8 13 13 undefined N/A 29.78 1008 10 16 0.00 0.00
2:51 pm 14:51 Mostly Sunny 95 35 35 1.7 12 12 NW 15 24 29.77 1008 10 16 0.00 0.00
3:02 pm 15:02 Mostly Sunny 95 35 34 1.1 12 12 NW 13 20 29.68 1005 10 16 0.00 0.00
3:51 pm 15:51 Sunny 97 36.1 31 -0.6 10 10 W 23 37 29.73 1007 10 16 0.00 0.00
4:51 pm 16:51 Sunny 94 34.4 35 1.7 13 13 WNW 16 26 29.74 1007 10 16 0.00 0.00
5:51 pm 17:51 Sunny 91 32.8 35 1.7 14 14 WNW 20 31 29.75 1007 10 16 0.00 0.00
6:51 pm 18:51 Sunny 91 32.8 35 1.7 14 14 WNW 20 31 29.74 1007 10 16 0.00 0.00
7:51 pm 19:51 Clear 87 30.6 31 -0.6 13 13 NW 15 24 29.76 1008 10 16 0.00 0.00
8:51 pm 20:51 Clear 84 28.9 27 -2.8 12 12 NW 14 22 29.78 1008 10 16 0.00 0.00
9:51 pm 21:51 Clear 79 26.1 27 -2.8 15 15 WNW 13 20 29.79 1009 10 16 0.00 0.00
10:51 pm 22:51 Clear 75 23.9 28 -2.2 18 18 NW 9 15 29.80 1009 10 16 0.00 0.00
11:51 pm 23:51 Clear 75 23.9 26 -3.3 16 16 NW 12 19 29.80 1009 10 16 0.00 0.00

Powered by AerisWeather